TimeEDT,TemperatureF,Dew PointF,Humidity,Sea Level PressureIn,VisibilityMPH,Wind Direction,Wind SpeedMPH,Gust SpeedMPH,PrecipitationIn,Events,Conditions,WindDirDegrees,DateUTC
12:51 AM,63.0,60.1,90,30.07,10.0,SW,6.9,-,N/A,,Clear,230,2013-07-07 04:51:00
1:51 AM,60.1,59.0,96,30.06,9.0,SSW,4.6,-,N/A,,Clear,200,2013-07-07 05:51:00
2:51 AM,64.0,61.0,90,30.05,9.0,SW,5.8,-,N/A,,Clear,230,2013-07-07 06:51:00
3:51 AM,64.9,61.0,87,30.04,9.0,WSW,4.6,-,N/A,,Clear,240,2013-07-07 07:51:00
4:51 AM,62.1,60.1,93,30.04,7.0,SSW,5.8,-,N/A,,Clear,200,2013-07-07 08:51:00
5:51 AM,62.1,60.1,93,30.03,6.0,Calm,Calm,-,N/A,,Clear,0,2013-07-07 09:51:00
6:51 AM,64.9,62.1,90,30.04,5.0,Calm,Calm,-,N/A,,Overcast,0,2013-07-07 10:51:00
7:51 AM,66.0,64.0,93,30.04,6.0,South,3.5,-,N/A,,Mostly Cloudy,170,2013-07-07 11:51:00
8:51 AM,68.0,64.9,90,30.04,7.0,SSW,3.5,-,N/A,,Clear,210,2013-07-07 12:51:00
9:17 AM,69.8,64.4,83,30.06,7.0,SW,4.6,-,N/A,,Mostly Cloudy,220,2013-07-07 13:17:00
9:46 AM,69.8,64.4,83,30.06,8.0,SW,4.6,-,N/A,,Mostly Cloudy,220,2013-07-07 13:46:00
9:51 AM,70.0,64.9,84,30.04,8.0,SW,4.6,-,N/A,,Mostly Cloudy,230,2013-07-07 13:51:00
10:51 AM,73.0,66.9,81,30.03,8.0,SW,6.9,-,N/A,,Mostly Cloudy,230,2013-07-07 14:51:00
11:51 AM,75.9,66.0,71,30.02,10.0,SSW,8.1,-,N/A,,Mostly Cloudy,210,2013-07-07 15:51:00
12:51 PM,75.0,66.0,73,30.01,10.0,Calm,Calm,-,N/A,,Overcast,0,2013-07-07 16:51:00
1:51 PM,77.0,66.9,71,30.00,10.0,WNW,4.6,-,N/A,,Overcast,290,2013-07-07 17:51:00
2:42 PM,71.6,66.2,83,30.02,1.8,WSW,6.9,-,0.02,Rain,Heavy Rain,240,2013-07-07 18:42:00
2:51 PM,70.0,68.0,93,29.99,1.2,Calm,Calm,-,0.06,Rain,Rain,0,2013-07-07 18:51:00
2:59 PM,71.6,69.8,94,30.01,3.0,Calm,Calm,-,0.00,Rain,Light Rain,0,2013-07-07 18:59:00
3:51 PM,73.9,68.0,82,29.98,10.0,Calm,Calm,-,0.00,,Mostly Cloudy,0,2013-07-07 19:51:00
4:51 PM,75.9,66.9,74,29.96,10.0,SW,6.9,-,N/A,,Scattered Clouds,230,2013-07-07 20:51:00
5:51 PM,75.9,66.9,74,29.96,10.0,WSW,6.9,-,N/A,,Scattered Clouds,240,2013-07-07 21:51:00
6:51 PM,75.0,66.0,73,29.96,10.0,WSW,8.1,-,N/A,,Partly Cloudy,240,2013-07-07 22:51:00
7:51 PM,73.0,64.0,73,29.96,10.0,WSW,5.8,-,N/A,,Clear,250,2013-07-07 23:51:00
8:51 PM,69.1,64.9,87,29.96,10.0,Calm,Calm,-,N/A,,Mostly Cloudy,0,2013-07-08 00:51:00
9:51 PM,68.0,64.9,90,29.97,9.0,Calm,Calm,-,N/A,,Clear,0,2013-07-08 01:51:00
10:51 PM,69.1,64.0,84,29.96,10.0,Calm,Calm,-,N/A,,Scattered Clouds,0,2013-07-08 02:51:00
11:51 PM,66.9,64.9,93,29.97,10.0,Calm,Calm,-,N/A,,Overcast,0,2013-07-08 03:51:00